Starlink 6350

operational
NORAD ID: 57226 Int'l Des: 2023-094 Owner: SPXS Country: US Constellation: starlink
LEOCIRCULAR

About Starlink 6350

Description loading...

Live Position

Loading 3D Globe...

Upcoming Passes

Altitude History

Altitude vs Time

uPlot chart will show altitude changes over time

Two-Line Element Set

1 57226U 23094J 25305.48263372 -.00000339 00000-0 -10041-4 0 9997
2 57226 43.0044 7.0256 0001447 273.5204 86.5473 15.02533389127831
Epoch: Nov 1, 2025 • Age: 18 hours

Current Status

Altitude 560.2 km
Velocity 7.59 km/s
Sub-Earth Point 29.55°N, 81.6°W
Launch Date Jul 7, 2023
Age 2.3 years
Type internet

Technical Details

Classification Payload
Mass 305.00 kg
Dry Mass 290.00 kg
Total Mass 305.00 kg
Length 0.20 m
Diameter 2.80 m
Span 9.00 m
Shape Box + pan
Manufacturer SPXS
Bus Type Starlink
Phase Status In Orbit
Owner/State SPXS/US

Large Constellations

Loading constellations...